Change the Weather History Date:

Tuesday, February 21, 2012

  Actual Average Record
Temperature  
Mean Temperature 33 °F -  
Max Temperature 39 °F 35 °F 59 °F (1997)
Min Temperature 27 °F 20 °F 3 °F (2008)
Degree Days  
Heating Degree Days 32    
Moisture  
Dew Point 31 °F    
Average Humidity 85    
Maximum Humidity 96    
Minimum Humidity 69    
Precipitation  
Precipitation 0.00 in - - ()
Sea Level Pressure  
Sea Level Pressure 29.74 in    
Wind  
Wind Speed 11 mph (South)    
Max Wind Speed 20 mph    
Max Gust Speed 30 mph    
Visibility 8 miles    
Events Snow    
Averages and records for this station are not official NWS values.
T = Trace of Precipitation, MM = Missing Value Source: NWS Daily Summary

Daily Weather History Graph

Daily Weather History Graph

Search for Another Location

Airport or City:

Trip Planner

Search our weather history database for the weather conditions in past years. The results will help you decide how hot, cold, wet, or windy it might be!

Date:

Astronomy

Feb. 21, 2012 Rise Set
Actual Time 7:24 AM EST 6:14 PM EST
Civil Twilight 6:56 AM EST 6:43 PM EST
Nautical Twilight 6:23 AM EST 7:16 PM EST
Astronomical Twilight 5:50 AM EST 7:49 PM EST
Moon 6:52 AM EST (2/21) 6:21 PM EST (2/21)
Length of Visible Light 11h 47m
Length of Day
10h 50m
Waning Crescent, 0% of the Moon is Illuminated
Feb 21
Waning Crescent
Feb 21
New
Feb 29
First Quarter
Mar 8
Full
Mar 14
Last Quarter

Hourly Weather History & Observations

Time (EST) Temp. Windchill Dew Point Humidity Pressure Visibility Wind Dir Wind Speed Gust Speed Precip Events Conditions
12:15 AM 27.5 °F 18.6 °F 22.3 °F 81% 30.08 in 10.0 mi SE 9.2 mph - N/A   Clear
12:34 AM 27.3 °F 18.4 °F 22.3 °F 81% 30.07 in 10.0 mi SE 9.2 mph - N/A   Clear
12:55 AM 27.5 °F 19.3 °F 23.0 °F 83% 30.06 in 10.0 mi SE 8.1 mph - N/A   Clear
1:15 AM 28.2 °F 18.9 °F 23.7 °F 83% 30.05 in 10.0 mi SE 10.4 mph - N/A   Clear
1:34 AM 28.4 °F 19.1 °F 24.4 °F 85% 30.04 in 10.0 mi SE 10.4 mph - N/A   Clear
1:55 AM 29.1 °F 19.4 °F 24.8 °F 84% 30.01 in 10.0 mi SE 11.5 mph - N/A   Clear
2:14 AM 30.0 °F 20.5 °F 25.5 °F 83% 30.00 in 10.0 mi SE 11.5 mph - N/A   Clear
2:34 AM 30.0 °F 21.7 °F 25.3 °F 83% 29.99 in 10.0 mi SE 9.2 mph - N/A   Clear
2:55 AM 30.6 °F 21.8 °F 25.5 °F 82% 29.98 in 10.0 mi SE 10.4 mph - N/A   Clear
3:14 AM 30.9 °F 22.8 °F 25.3 °F 80% 29.97 in 10.0 mi SE 9.2 mph - N/A   Clear
3:35 AM 31.3 °F 22.1 °F 25.5 °F 79% 29.94 in 10.0 mi SE 11.5 mph 18.4 mph N/A   Clear
3:54 AM 31.8 °F 22.8 °F 25.2 °F 76% 29.93 in 10.0 mi SE 11.5 mph - N/A   Clear
4:35 AM 31.6 °F 22.1 °F 24.8 °F 76% 29.89 in 10.0 mi SE 12.7 mph - N/A   Clear
4:54 AM 31.8 °F 22.3 °F 24.8 °F 75% 29.87 in 10.0 mi SSE 12.7 mph - N/A   Clear
5:14 AM 32.0 °F 22.1 °F 24.8 °F 75% 29.85 in 10.0 mi SE 13.8 mph - N/A   Clear
5:35 AM 32.0 °F 21.2 °F 24.8 °F 75% 29.83 in 10.0 mi SE 16.1 mph - N/A   Clear
5:54 AM 32.5 °F 22.3 °F 24.6 °F 73% 29.82 in 10.0 mi SSE 15.0 mph 20.7 mph N/A   Clear
6:14 AM 32.9 °F 22.4 °F 24.3 °F 71% 29.81 in 10.0 mi SSE 16.1 mph 21.9 mph N/A   Clear
6:35 AM 32.9 °F 24.1 °F 24.3 °F 71% 29.79 in 10.0 mi SE 11.5 mph 19.6 mph N/A   Clear
6:54 AM 33.1 °F 23.4 °F 24.3 °F 70% 29.77 in 10.0 mi SE 13.8 mph 19.6 mph N/A   Clear
7:14 AM 33.1 °F 23.4 °F 24.4 °F 71% 29.76 in 10.0 mi SE 13.8 mph 18.4 mph N/A   Mostly Cloudy
7:34 AM 33.6 °F 24.6 °F 24.3 °F 69% 29.76 in 10.0 mi SSE 12.7 mph 18.4 mph N/A   Mostly Cloudy
8:15 AM 34.0 °F 25.5 °F 24.8 °F 69% 29.74 in 10.0 mi SSE 11.5 mph - N/A   Overcast
8:34 AM 34.2 °F 26.2 °F 25.2 °F 70% 29.73 in 10.0 mi South 10.4 mph - N/A   Overcast
8:55 AM 33.1 °F 25.5 °F 28.4 °F 83% 29.74 in 1.2 mi SSE 9.2 mph 19.6 mph N/A Snow Light Snow
9:14 AM 32.2 °F 24.4 °F 30.2 °F 92% 29.72 in 0.5 mi SSE 9.2 mph - N/A Snow Light Snow
9:34 AM 32.5 °F 24.8 °F 31.1 °F 94% 29.71 in 0.5 mi SSE 9.2 mph - N/A Snow Light Snow
9:55 AM 32.7 °F 25.0 °F 31.8 °F 96% 29.70 in 0.8 mi SSE 9.2 mph - N/A Snow Light Snow
10:14 AM 32.9 °F 25.3 °F 32.0 °F 96% 29.68 in 1.0 mi SSE 9.2 mph - N/A Snow Light Snow
10:34 AM 33.3 °F 25.7 °F 32.2 °F 96% 29.67 in 0.8 mi SSE 9.2 mph - N/A Snow Light Snow
10:55 AM 33.6 °F 26.8 °F 32.5 °F 96% 29.66 in 2.5 mi South 8.1 mph - N/A Snow Light Snow
11:14 AM 34.2 °F 27.5 °F 32.9 °F 95% 29.65 in 4.0 mi South 8.1 mph - N/A   Overcast
11:34 AM 34.7 °F 27.5 °F 32.9 °F 93% 29.65 in 5.0 mi South 9.2 mph - N/A   Overcast
12:14 PM 35.6 °F 29.2 °F 33.6 °F 92% 29.63 in 7.0 mi South 8.1 mph - N/A   Overcast
12:34 PM 35.8 °F 28.8 °F 33.8 °F 92% 29.63 in 10.0 mi SSW 9.2 mph - N/A   Overcast
12:55 PM 36.1 °F 29.3 °F 34.2 °F 93% 29.62 in 7.0 mi SSW 9.2 mph - N/A   Overcast
1:14 PM 36.5 °F 30.3 °F 34.7 °F 93% 29.60 in 10.0 mi SSW 8.1 mph - N/A   Overcast
1:35 PM 37.0 °F 31.0 °F 35.1 °F 93% 29.60 in 10.0 mi SSW 8.1 mph - N/A   Overcast
1:55 PM 37.4 °F 32.1 °F 35.2 °F 92% 29.59 in 7.0 mi SSW 6.9 mph - N/A   Overcast
2:14 PM 37.8 °F 31.8 °F 35.8 °F 93% 29.59 in 5.0 mi SW 8.1 mph - N/A   Overcast
2:35 PM 38.8 °F 33.2 °F 36.5 °F 91% 29.59 in 7.0 mi SW 8.1 mph - N/A   Overcast
3:14 PM 39.6 °F 33.5 °F 36.1 °F 88% 29.59 in 10.0 mi SW 9.2 mph 16.1 mph N/A   Overcast
3:35 PM 39.4 °F 31.8 °F 35.6 °F 86% 29.60 in 10.0 mi SW 12.7 mph 17.3 mph N/A   Overcast
3:54 PM 39.2 °F 32.5 °F 35.6 °F 87% 29.60 in 7.0 mi SW 10.4 mph 16.1 mph N/A   Overcast
4:14 PM 39.4 °F 32.7 °F 36.0 °F 88% 29.60 in 7.0 mi SW 10.4 mph - N/A   Overcast
4:35 PM 39.6 °F 34.0 °F 36.1 °F 88% 29.60 in 7.0 mi SW 8.1 mph - N/A   Overcast
4:54 PM 39.2 °F 33.0 °F 36.7 °F 91% 29.60 in 2.5 mi SW 9.2 mph - N/A   Light Drizzle
5:14 PM 39.4 °F 33.8 °F 37.2 °F 92% 29.60 in 4.0 mi SW 8.1 mph - N/A   Light Drizzle
5:35 PM 39.4 °F 32.7 °F 37.4 °F 93% 29.59 in 5.0 mi SW 10.4 mph - N/A   Light Drizzle
5:54 PM 39.2 °F 33.6 °F 37.4 °F 93% 29.59 in 5.0 mi SW 8.1 mph - N/A   Light Drizzle
6:15 PM 39.2 °F 34.2 °F 37.4 °F 93% 29.59 in 2.5 mi SSW 6.9 mph - N/A   Drizzle
6:34 PM 39.2 °F 34.2 °F 37.8 °F 95% 29.59 in 4.0 mi SSW 6.9 mph - N/A   Drizzle
6:54 PM 39.4 °F 33.8 °F 38.3 °F 96% 29.59 in 5.0 mi SW 8.1 mph - N/A   Light Drizzle
7:34 PM 39.9 °F 33.4 °F 38.7 °F 95% 29.61 in 7.0 mi WSW 10.4 mph - N/A   Drizzle
8:14 PM 39.4 °F 30.1 °F 37.4 °F 93% 29.62 in 10.0 mi West 18.4 mph 24.2 mph N/A   Overcast
8:34 PM 38.8 °F 29.1 °F 35.6 °F 88% 29.63 in 10.0 mi West 19.6 mph 24.2 mph N/A   Overcast
8:55 PM 38.3 °F 29.0 °F 33.3 °F 82% 29.65 in 10.0 mi West 17.3 mph 29.9 mph N/A   Overcast
9:14 PM 37.8 °F 28.6 °F 32.4 °F 81% 29.65 in 10.0 mi West 16.1 mph 21.9 mph N/A   Overcast
9:34 PM 37.4 °F 28.5 °F 32.2 °F 81% 29.66 in 10.0 mi West 15.0 mph 19.6 mph N/A   Overcast
9:55 PM 37.0 °F 28.5 °F 32.2 °F 83% 29.66 in 10.0 mi WSW 13.8 mph 18.4 mph N/A   Overcast
10:14 PM 36.7 °F 28.9 °F 32.0 °F 83% 29.66 in 10.0 mi WSW 11.5 mph 18.4 mph N/A   Mostly Cloudy
10:34 PM 36.0 °F 29.6 °F 32.0 °F 86% 29.66 in 10.0 mi WSW 8.1 mph - N/A   Scattered Clouds
10:55 PM 36.0 °F 30.3 °F 32.0 °F 86% 29.65 in 10.0 mi SW 6.9 mph - N/A   Mostly Cloudy
11:14 PM 35.8 °F 30.1 °F 32.0 °F 86% 29.65 in 10.0 mi SW 6.9 mph - N/A   Overcast
11:35 PM 35.6 °F 29.2 °F 32.0 °F 87% 29.65 in 10.0 mi SW 8.1 mph - N/A   Scattered Clouds
11:55 PM 35.1 °F 30.1 °F 32.0 °F 89% 29.64 in 10.0 mi SSW 5.8 mph - N/A   Clear